Date String (YYYY-MM-DD hh:mm:ss) UTC,Instrument flags,Ambient pressure (hPa),Sample flow (lpm),Bypass flow (lpm),Sample temperature (°C),Ambient temperature (°C),ASC tube jacket temperature (°C),LED temperature (°C),Box temperature (°C),Sample RH (%),Span deviation,Mass concentration (μg/m³),Mass concentration (μg/m³),Mass concentration (μg/m³)
DateTimeUTC,F1_M11,P_M11,Q1_M11,Q2_M11,T1_M11,T2_M11,T3_M11,T4_M11,T5_M11,U1_M11,ZSPAN_M11,X0_M11,X2_M11,X1_M11
2022-01-01 03:00:00,,0815.1,4.99,0.00,22.1,22.2,00.0,31.1,23.8,10.8,0000.0,0013.75,0000.98,0000.11
2022-01-01 03:01:00,,0814.7,5.00,0.00,22.1,21.9,00.0,31.1,23.6,10.8,0000.0,0013.49,0001.00,0000.11
2022-01-01 03:02:00,,0814.7,5.00,0.00,22.0,21.6,00.0,31.1,23.5,10.8,0000.0,0012.39,0000.96,0000.11
2022-01-01 03:03:00,,0814.9,5.01,0.00,21.9,21.4,00.0,31.1,23.4,10.9,0000.0,0012.26,0001.02,0000.10
2022-01-01 03:04:00,,0814.7,5.00,0.00,21.9,21.1,00.0,31.0,23.3,10.9,0000.0,0011.35,0001.04,0000.11
2022-01-01 03:05:00,,0814.8,5.00,0.00,21.8,21.0,00.0,31.0,23.3,10.9,0000.0,0010.24,0000.84,0000.09
2022-01-01 03:06:00,,0814.9,5.00,0.00,21.7,20.8,00.0,31.0,23.2,11.0,0000.0,0013.88,0000.77,0000.07
2022-01-01 03:07:00,,0814.9,5.00,0.00,21.7,20.7,00.0,31.0,23.2,11.0,0000.0,0017.91,0000.84,0000.07
2022-01-01 03:08:00,,0814.7,5.01,0.00,21.6,20.6,00.0,30.9,23.1,11.0,0000.0,0018.14,0000.95,0000.08
2022-01-01 03:09:00,,0814.8,5.00,0.00,21.6,20.7,00.0,30.9,23.1,11.1,0000.0,0015.91,0001.01,0000.10
2022-01-01 03:10:00,,0815.2,5.01,0.00,21.6,20.7,00.0,30.9,23.1,11.6,0000.0,0015.48,0001.05,0000.12
2022-01-01 03:11:00,,0815.0,5.01,0.00,21.6,21.3,00.0,30.9,23.3,11.3,0000.0,0015.87,0001.13,0000.13
2022-01-01 03:12:00,,0815.3,5.00,0.00,21.8,22.2,00.0,30.9,23.6,11.0,0000.0,0016.06,0001.26,0000.16
2022-01-01 03:13:00,,0815.0,5.01,0.00,22.0,22.9,00.0,30.9,23.9,10.9,0000.0,0016.19,0001.28,0000.17
2022-01-01 03:14:00,,0814.8,5.00,0.00,22.0,22.8,00.0,30.9,23.9,11.0,0000.0,0016.31,0001.20,0000.17
2022-01-01 03:15:00,,0814.7,4.99,0.00,22.0,22.5,00.0,31.0,23.8,11.1,0000.0,0016.66,0001.18,0000.17
2022-01-01 03:16:00,,0814.7,5.01,0.00,22.0,22.1,00.0,31.0,23.7,10.8,0000.0,0017.52,0001.20,0000.17
2022-01-01 03:17:00,,0814.6,5.00,0.00,22.0,21.9,00.0,31.0,23.6,11.0,0000.0,0012.63,0001.10,0000.16
2022-01-01 03:18:00,,0814.7,4.99,0.00,22.0,21.7,00.0,31.0,23.6,11.4,0000.0,0011.12,0001.25,0000.17
2022-01-01 03:19:00,,0814.8,5.00,0.00,21.9,21.6,00.0,31.0,23.5,11.4,0000.0,0010.99,0001.25,0000.16
2022-01-01 03:20:00,,0814.6,5.01,0.00,21.9,21.5,00.0,31.0,23.5,11.3,0000.0,0011.86,0001.25,0000.15
2022-01-01 03:21:00,,0814.8,4.99,0.00,21.9,21.4,00.0,31.0,23.4,11.3,0000.0,0012.22,0001.24,0000.14
2022-01-01 03:22:00,,0814.8,5.01,0.00,21.8,21.3,00.0,30.9,23.4,11.4,0000.0,0011.97,0001.16,0000.13
2022-01-01 03:23:00,,0814.9,5.01,0.00,21.8,21.2,00.0,30.9,23.3,11.0,0000.0,0011.99,0001.04,0000.11
2022-01-01 03:24:00,,0814.9,5.00,0.00,21.7,21.1,00.0,30.9,23.3,11.0,0000.0,0011.74,0001.12,0000.13
2022-01-01 03:25:00,,0814.7,5.00,0.00,21.7,21.1,00.0,30.9,23.2,11.2,0000.0,0012.08,0001.14,0000.14
2022-01-01 03:26:00,,0815.2,4.99,0.00,21.7,21.0,00.0,30.9,23.2,11.0,0000.0,0012.47,0001.17,0000.14
2022-01-01 03:27:00,,0815.1,5.01,0.00,21.6,20.9,00.0,30.8,23.2,10.9,0000.0,0011.78,0001.17,0000.14
2022-01-01 03:28:00,,0815.1,5.00,0.00,21.7,21.4,00.0,30.9,23.3,10.8,0000.0,0011.86,0001.17,0000.14
2022-01-01 03:29:00,,0815.2,5.01,0.00,21.8,22.3,00.0,30.9,23.7,10.8,0000.0,0010.01,0000.95,0000.13
2022-01-01 03:30:00,,0815.1,5.00,0.00,22.0,23.1,00.0,30.9,24.0,10.7,0000.0,0011.01,0000.92,0000.12
2022-01-01 03:31:00,,0815.0,5.00,0.00,22.1,23.0,00.0,31.0,24.1,10.5,0000.0,0010.52,0000.90,0000.12
2022-01-01 03:32:00,,0815.1,5.00,0.00,22.2,22.7,00.0,31.0,24.0,10.5,0000.0,0010.40,0000.93,0000.13
2022-01-01 03:33:00,,0814.9,5.00,0.00,22.1,22.5,00.0,31.0,23.9,10.5,0000.0,0011.31,0001.00,0000.13
2022-01-01 03:34:00,,0814.8,5.00,0.00,22.1,22.1,00.0,31.0,23.8,10.6,0000.0,0012.65,0001.05,0000.14
2022-01-01 03:35:00,,0815.2,5.00,0.00,22.1,21.8,00.0,31.0,23.8,10.7,0000.0,0013.87,0001.00,0000.12
2022-01-01 03:36:00,,0814.9,5.01,0.00,22.0,21.6,00.0,31.0,23.7,10.6,0000.0,0013.95,0001.06,0000.13
2022-01-01 03:37:00,,0814.7,5.00,0.00,22.0,21.4,00.0,31.0,23.6,10.6,0000.0,0012.93,0001.04,0000.12
2022-01-01 03:38:00,,0815.1,4.99,0.00,22.0,21.2,00.0,31.0,23.6,10.6,0000.0,0013.17,0001.02,0000.12
2022-01-01 03:39:00,,0815.2,5.00,0.00,21.9,21.0,00.0,31.0,23.5,10.6,0000.0,0013.13,0001.00,0000.12
2022-01-01 03:40:00,,0814.9,5.00,0.00,21.9,21.0,00.0,31.0,23.5,10.7,0000.0,0013.18,0000.98,0000.12
2022-01-01 03:41:00,,0814.8,4.99,0.00,21.9,21.1,00.0,31.0,23.5,10.8,0000.0,0010.67,0000.83,0000.11
2022-01-01 03:42:00,,0814.9,5.00,0.00,21.9,21.1,00.0,31.0,23.5,10.9,0000.0,0012.58,0001.00,0000.11
2022-01-01 03:43:00,,0814.9,5.01,0.00,21.9,21.2,00.0,30.9,23.5,10.8,0000.0,0013.02,0001.00,0000.11
2022-01-01 03:44:00,,0814.9,4.99,0.00,21.9,21.2,00.0,30.9,23.5,10.8,0000.0,0012.59,0000.95,0000.11
2022-01-01 03:45:00,,0814.9,5.01,0.00,21.8,21.2,00.0,30.9,23.5,10.8,0000.0,0011.44,0000.97,0000.11
2022-01-01 03:46:00,,0814.9,4.99,0.00,21.8,21.2,00.0,30.9,23.5,11.0,0000.0,0011.02,0001.02,0000.12
2022-01-01 03:47:00,,0814.9,4.99,0.00,21.8,21.1,00.0,30.9,23.5,10.9,0000.0,0011.20,0001.00,0000.11
2022-01-01 03:48:00,,0814.9,5.00,0.00,21.8,21.0,00.0,30.9,23.4,10.8,0000.0,0011.85,0001.01,0000.13
2022-01-01 03:49:00,,0815.0,5.01,0.00,21.7,20.8,00.0,30.8,23.3,10.8,0000.0,0012.06,0001.09,0000.14
2022-01-01 03:50:00,,0815.0,4.99,0.00,21.8,21.4,00.0,30.9,23.4,10.7,0000.0,0012.06,0001.16,0000.14
2022-01-01 03:51:00,,0815.0,4.99,0.00,21.9,22.3,00.0,30.9,23.8,10.6,0000.0,0012.25,0001.16,0000.14
2022-01-01 03:52:00,,0815.0,5.00,0.00,22.1,23.0,00.0,30.9,24.0,10.4,0000.0,0012.81,0001.11,0000.13
2022-01-01 03:53:00,,0815.0,5.00,0.00,22.1,22.7,00.0,31.0,24.1,10.4,0000.0,0011.36,0000.86,0000.12
2022-01-01 03:54:00,,0815.1,5.01,0.00,22.1,22.4,00.0,31.0,24.0,10.4,0000.0,0012.20,0000.89,0000.11
2022-01-01 03:55:00,,0814.9,4.99,0.00,22.1,22.0,00.0,31.0,23.9,10.4,0000.0,0013.50,0000.93,0000.11
2022-01-01 03:56:00,,0814.9,5.00,0.00,22.1,21.8,00.0,31.0,23.8,10.4,0000.0,0014.50,0000.89,0000.12
2022-01-01 03:57:00,,0814.9,5.00,0.00,22.1,21.6,00.0,31.0,23.8,10.4,0000.0,0016.02,0000.91,0000.12
2022-01-01 03:58:00,,0814.9,5.00,0.00,22.0,21.5,00.0,31.0,23.7,10.4,0000.0,0017.10,0000.88,0000.11
2022-01-01 03:59:00,,0814.8,5.00,0.00,22.0,21.4,00.0,31.0,23.7,10.5,0000.0,0017.28,0000.91,0000.11
